Lago Vista, TX

5:54 AM CDT on May 24, 2018 (GMT -0500)
Lago Vista

Weather History for KRYW - November, 2012

Change the Weather History Date:

Saturday, November 10, 2012

  Actual Average (WUND) Record (WUND)
Temperature  
Mean Temperature 71 °F -  
Max Temperature 80 °F - - (-1)
Min Temperature 62 °F - - (-1)
Cooling Degree Days 6    
Growing Degree Days 21 (Base 50)    
Moisture  
Dew Point 60 °F    
Average Humidity 70    
Maximum Humidity 94    
Minimum Humidity 42    
Precipitation  
Precipitation 0.00 in - - ()
Sea Level Pressure  
Sea Level Pressure 29.97 in    
Wind  
Wind Speed 11 mph (SSE)    
Max Wind Speed 22 mph    
Max Gust Speed 33 mph    
Visibility 10 miles    
Events      
Averages and records for this station are not official NWS values.
T = Trace of Precipitation, MM = Missing Value Source: NWS Daily Summary

Daily Weather History Graph

Daily Weather History Graph

Search for Another Location

Airport or City:

Astronomy

Nov. 10, 2012 Rise Set
Actual Time 6:54 AM CST 5:37 PM CST
Civil Twilight 6:28 AM CST 6:02 PM CST
Nautical Twilight 5:59 AM CST 6:31 PM CST
Astronomical Twilight 5:31 AM CST 6:59 PM CST
Moon 3:14 AM CST (11/10) 3:13 PM CST (11/10)
Length of Visible Light 11h 33m
Length of Day
10h 43m
Waning Crescent, 14% of the Moon is Illuminated
Nov 10
Waning Crescent
Nov 13
New
Nov 20
First Quarter
Nov 28
Full
Dec 6
Last Quarter

Hourly Weather History & Observations

Time (CST) Temp. Heat Index Dew Point Humidity Pressure Visibility Wind Dir Wind Speed Gust Speed Precip Events Conditions
12:15 AM 64.4 °F - 60.8 °F 88% 30.05 in 10.0 mi SSE 9.2 mph - N/A   Overcast
12:35 AM 64.4 °F - 60.8 °F 88% 30.04 in 10.0 mi South 9.2 mph - N/A   Overcast
12:55 AM 64.4 °F - 60.8 °F 88% 30.04 in 10.0 mi South 9.2 mph 17.3 mph N/A   Mostly Cloudy
1:15 AM 64.4 °F - 60.8 °F 88% 30.03 in 10.0 mi SSE 9.2 mph 16.1 mph N/A   Mostly Cloudy
1:35 AM 64.4 °F - 60.8 °F 88% 30.03 in 10.0 mi South 8.1 mph - N/A   Mostly Cloudy
1:55 AM 64.4 °F - 60.8 °F 88% 30.03 in 10.0 mi SSE 8.1 mph - N/A   Overcast
2:15 AM 64.4 °F - 60.8 °F 88% 30.02 in 10.0 mi SSE 9.2 mph - N/A   Mostly Cloudy
2:35 AM 64.4 °F - 60.8 °F 88% 30.01 in 10.0 mi SSE 6.9 mph - N/A   Scattered Clouds
2:55 AM 64.4 °F - 62.6 °F 94% 30.01 in 10.0 mi SSE 9.2 mph - N/A   Mostly Cloudy
3:15 AM 64.4 °F - 62.6 °F 94% 30.00 in 10.0 mi SSE 4.6 mph - N/A   Overcast
3:35 AM 64.4 °F - 62.6 °F 94% 30.00 in 10.0 mi SSE 8.1 mph - N/A   Overcast
3:55 AM 64.4 °F - 60.8 °F 88% 30.00 in 10.0 mi SSE 9.2 mph 16.1 mph N/A   Overcast
4:15 AM 64.4 °F - 60.8 °F 88% 30.00 in 10.0 mi SSE 10.4 mph 17.3 mph N/A   Overcast
4:35 AM 64.4 °F - 60.8 °F 88% 30.01 in 10.0 mi SSE 6.9 mph 16.1 mph N/A   Overcast
4:55 AM 64.4 °F - 60.8 °F 88% 30.01 in 10.0 mi SSE 8.1 mph - N/A   Overcast
5:15 AM 62.6 °F - 60.8 °F 94% 30.01 in 10.0 mi SSE 6.9 mph - N/A   Mostly Cloudy
5:55 AM 62.6 °F - 60.8 °F 94% 30.00 in 10.0 mi SSE 6.9 mph - N/A   Overcast
6:15 AM 62.6 °F - 60.8 °F 94% 30.00 in 10.0 mi SSE 8.1 mph - N/A   Overcast
6:35 AM 62.6 °F - 60.8 °F 94% 30.01 in 10.0 mi SSE 10.4 mph 18.4 mph N/A   Overcast
6:55 AM 62.6 °F - 60.8 °F 94% 30.01 in 7.0 mi SSE 8.1 mph - N/A   Overcast
7:15 AM 62.6 °F - 60.8 °F 94% 30.02 in 5.0 mi SSE 5.8 mph - N/A   Overcast
7:35 AM 62.6 °F - 60.8 °F 94% 30.02 in 5.0 mi SSE 5.8 mph - N/A   Overcast
7:55 AM 62.6 °F - 60.8 °F 94% 30.03 in 5.0 mi SSE 5.8 mph - N/A   Overcast
8:15 AM 64.4 °F - 62.6 °F 94% 30.03 in 7.0 mi SSE 9.2 mph - N/A   Overcast
8:35 AM 66.2 °F - 62.6 °F 88% 30.03 in 10.0 mi SSE 8.1 mph - N/A   Scattered Clouds
8:55 AM 68.0 °F - 60.8 °F 78% 30.04 in 10.0 mi South 9.2 mph 17.3 mph N/A   Scattered Clouds
9:15 AM 69.8 °F - 62.6 °F 78% 30.04 in 10.0 mi South 13.8 mph 20.7 mph N/A   Clear
9:35 AM 69.8 °F - 60.8 °F 73% 30.04 in 10.0 mi South 15.0 mph 25.3 mph N/A   Mostly Cloudy
9:55 AM 69.8 °F - 60.8 °F 73% 30.04 in 10.0 mi South 17.3 mph 27.6 mph N/A   Mostly Cloudy
10:15 AM 71.6 °F - 60.8 °F 69% 30.03 in 10.0 mi South 12.7 mph 24.2 mph N/A   Scattered Clouds
10:35 AM 73.4 °F - 60.8 °F 65% 30.03 in 10.0 mi South 15.0 mph 28.8 mph N/A   Mostly Cloudy
10:55 AM 75.2 °F - 59.0 °F 57% 30.02 in 10.0 mi South 17.3 mph 27.6 mph N/A   Mostly Cloudy
11:15 AM 75.2 °F - 57.2 °F 53% 30.01 in 10.0 mi South 16.1 mph 28.8 mph N/A   Scattered Clouds
11:35 AM 77.0 °F - 59.0 °F 54% 30.00 in 10.0 mi South 17.3 mph 24.2 mph N/A   Mostly Cloudy
11:55 AM 77.0 °F - 55.4 °F 47% 30.00 in 10.0 mi South 16.1 mph 26.5 mph N/A   Scattered Clouds
12:15 PM 77.0 °F - 53.6 °F 44% 29.99 in 10.0 mi South 21.9 mph 33.4 mph N/A   Clear
12:35 PM 78.8 °F - 55.4 °F 44% 29.98 in 10.0 mi SSW 15.0 mph 26.5 mph N/A   Clear
12:55 PM 78.8 °F - 55.4 °F 44% 29.97 in 10.0 mi South 17.3 mph 32.2 mph N/A   Mostly Cloudy
1:15 PM 78.8 °F - 55.4 °F 44% 29.95 in 10.0 mi South 15.0 mph 26.5 mph N/A   Scattered Clouds
1:35 PM 78.8 °F - 55.4 °F 44% 29.94 in 10.0 mi South 12.7 mph 27.6 mph N/A   Scattered Clouds
1:55 PM 80.6 °F 80.5 °F 55.4 °F 42% 29.93 in 10.0 mi South 10.4 mph 24.2 mph N/A   Scattered Clouds
2:15 PM 78.8 °F - 55.4 °F 44% 29.93 in 10.0 mi South 15.0 mph 32.2 mph N/A   Scattered Clouds
2:35 PM 78.8 °F - 55.4 °F 44% 29.92 in 10.0 mi SSE 15.0 mph 29.9 mph N/A   Clear
2:55 PM 78.8 °F - 55.4 °F 44% 29.91 in 10.0 mi South 13.8 mph 24.2 mph N/A   Clear
3:15 PM 78.8 °F - 55.4 °F 44% 29.91 in 10.0 mi SSE 12.7 mph 23.0 mph N/A   Scattered Clouds
3:35 PM 78.8 °F - 55.4 °F 44% 29.91 in 10.0 mi South 12.7 mph 25.3 mph N/A   Scattered Clouds
3:55 PM 78.8 °F - 57.2 °F 47% 29.89 in 10.0 mi SSE 16.1 mph 24.2 mph N/A   Scattered Clouds
4:15 PM 78.8 °F - 59.0 °F 51% 29.90 in 10.0 mi SSE 10.4 mph 23.0 mph N/A   Scattered Clouds
4:35 PM 78.8 °F - 59.0 °F 51% 29.89 in 10.0 mi SSE 15.0 mph 25.3 mph N/A   Mostly Cloudy
4:55 PM 77.0 °F - 57.2 °F 50% 29.89 in 10.0 mi SSE 11.5 mph 25.3 mph N/A   Scattered Clouds
5:15 PM 77.0 °F - 57.2 °F 50% 29.90 in 10.0 mi SSE 16.1 mph 27.6 mph N/A   Scattered Clouds
5:35 PM 75.2 °F - 59.0 °F 57% 29.89 in 10.0 mi SSE 11.5 mph 25.3 mph N/A   Scattered Clouds
5:55 PM 75.2 °F - 59.0 °F 57% 29.89 in 10.0 mi SSE 12.7 mph 24.2 mph N/A   Scattered Clouds
6:15 PM 73.4 °F - 59.0 °F 61% 29.89 in 10.0 mi SSE 13.8 mph 27.6 mph N/A   Clear
6:35 PM 73.4 °F - 59.0 °F 61% 29.90 in 10.0 mi SSE 10.4 mph 26.5 mph N/A   Clear
6:55 PM 73.4 °F - 59.0 °F 61% 29.90 in 10.0 mi SSE 16.1 mph 31.1 mph N/A   Clear
7:15 PM 73.4 °F - 59.0 °F 61% 29.90 in 10.0 mi SSE 17.3 mph 28.8 mph N/A   Clear
7:35 PM 71.6 °F - 59.0 °F 64% 29.91 in 10.0 mi SSE 17.3 mph 26.5 mph N/A   Clear
7:55 PM 71.6 °F - 59.0 °F 64% 29.92 in 10.0 mi SSE 13.8 mph 24.2 mph N/A   Scattered Clouds
8:15 PM 71.6 °F - 59.0 °F 64% 29.92 in 10.0 mi SSE 13.8 mph 25.3 mph N/A   Mostly Cloudy
8:35 PM 71.6 °F - 59.0 °F 64% 29.92 in 10.0 mi SSE 11.5 mph 20.7 mph N/A   Overcast
8:55 PM 71.6 °F - 60.8 °F 69% 29.91 in 10.0 mi SSE 10.4 mph 28.8 mph N/A   Mostly Cloudy
9:15 PM 71.6 °F - 60.8 °F 69% 29.92 in 10.0 mi South 12.7 mph 25.3 mph N/A   Mostly Cloudy
9:35 PM 71.6 °F - 60.8 °F 69% 29.92 in 10.0 mi SSE 15.0 mph 25.3 mph N/A   Overcast
9:55 PM 71.6 °F - 60.8 °F 69% 29.93 in 10.0 mi SSE 13.8 mph 21.9 mph N/A   Overcast
10:15 PM 71.6 °F - 60.8 °F 69% 29.92 in 10.0 mi SSE 15.0 mph 23.0 mph N/A   Overcast
10:35 PM 69.8 °F - 60.8 °F 73% 29.92 in 10.0 mi SSE 11.5 mph 24.2 mph N/A   Overcast
10:55 PM 69.8 °F - 60.8 °F 73% 29.92 in 10.0 mi SSE 15.0 mph 23.0 mph N/A   Mostly Cloudy
11:15 PM 69.8 °F - 60.8 °F 73% 29.92 in 10.0 mi South 11.5 mph 24.2 mph N/A   Overcast
11:35 PM 69.8 °F - 62.6 °F 78% 29.91 in 10.0 mi South 13.8 mph 27.6 mph N/A   Overcast
11:55 PM 69.8 °F - 62.6 °F 78% 29.89 in 10.0 mi South 11.5 mph 25.3 mph N/A   Overcast